| time (UTC) | temp F | wind direction | speed MPH | gust MPH | rain 1hr in | rain 24hr in | rain mn in | humidity % | barometer mb |
| 20260902070217 | 62 | 0 | 0.0 | 0.0 | 0.00 | 0.02 | 0.00 | 88 | 1020.1 |
| 20260902065616 | 62 | 0 | 0.0 | 0.0 | 0.00 | 0.02 | 0.00 | 88 | 1020.1 |
| 20260902064503 | 62 | 0 | 0.0 | 0.0 | 0.00 | 0.02 | 0.00 | 88 | 1020.2 |
| 20260902063603 | 62 | 0 | 0.0 | 0.0 | 0.00 | 0.02 | 0.00 | 88 | 1020.2 |
| 20260902062703 | 62 | 0 | 0.0 | 0.0 | 0.00 | 0.02 | 0.00 | 87 | 1020.1 |
| 20260902061803 | 62 | 0 | 0.0 | 0.0 | 0.00 | 0.02 | 0.00 | 87 | 1020.0 |
| 20260902060903 | 63 | 0 | 0.0 | 0.0 | 0.00 | 0.02 | 0.00 | 87 | 1019.8 |
| 20260902060003 | 63 | 0 | 0.0 | 0.0 | 0.00 | 0.02 | 0.00 | 86 | 1019.6 |
| 20260902055403 | 63 | 0 | 0.0 | 0.0 | 0.00 | 0.02 | 0.00 | 86 | 1019.5 |
| 20260902054503 | 63 | 181 | 0.0 | 3.0 | 0.00 | 0.02 | 0.00 | 86 | 1019.3 |
| 20260902053603 | 64 | 181 | 1.0 | 4.0 | 0.00 | 0.02 | 0.00 | 85 | 1019.3 |
| 20260902052703 | 64 | 181 | 0.0 | 3.0 | 0.00 | 0.02 | 0.00 | 85 | 1019.2 |
| 20260902051803 | 64 | 181 | 0.0 | 3.0 | 0.00 | 0.02 | 0.00 | 85 | 1019.3 |
| 20260902051117 | 64 | 181 | 0.0 | 3.0 | 0.00 | 0.02 | 0.00 | 86 | 1019.2 |
| 20260902050218 | 64 | 181 | 0.0 | 2.0 | 0.00 | 0.02 | 0.00 | 86 | 1019.3 |
| 20260902045403 | 63 | 181 | 0.0 | 3.0 | 0.00 | 0.02 | 0.00 | 87 | 1019.3 |
| 20260902044503 | 63 | 0 | 0.0 | 0.0 | 0.00 | 0.02 | 0.00 | 87 | 1019.4 |
| 20260902043603 | 63 | 181 | 0.0 | 2.0 | 0.00 | 0.02 | 0.00 | 87 | 1019.4 |
| 20260902042703 | 63 | 181 | 0.0 | 2.0 | 0.00 | 0.02 | 0.00 | 87 | 1019.4 |
| 20260902041803 | 63 | 181 | 0.0 | 1.0 | 0.00 | 0.02 | 0.00 | 87 | 1019.5 |
| 20260902040903 | 63 | 181 | 0.0 | 2.0 | 0.00 | 0.02 | 0.00 | 87 | 1019.5 |
| 20260902040003 | 63 | 0 | 0.0 | 0.0 | 0.00 | 0.02 | 0.00 | 86 | 1019.6 |
| 20260902035403 | 63 | 0 | 0.0 | 0.0 | 0.00 | 0.02 | 0.02 | 86 | 1019.6 |
| 20260902034717 | 63 | 0 | 0.0 | 0.0 | 0.00 | 0.02 | 0.02 | 86 | 1019.5 |
| 20260902033603 | 63 | 0 | 0.0 | 0.0 | 0.00 | 0.02 | 0.02 | 86 | 1019.4 |
| 20260902032703 | 63 | 0 | 0.0 | 0.0 | 0.00 | 0.02 | 0.02 | 85 | 1019.3 |
| 20260902031803 | 64 | 181 | 0.0 | 3.0 | 0.00 | 0.02 | 0.02 | 85 | 1019.2 |
| 20260902030903 | 64 | 181 | 1.0 | 3.0 | 0.00 | 0.02 | 0.02 | 86 | 1019.1 |
| 20260902030003 | 63 | 181 | 0.0 | 3.0 | 0.00 | 0.02 | 0.02 | 86 | 1018.9 |
| 20260902025403 | 63 | 181 | 0.0 | 2.0 | 0.00 | 0.02 | 0.02 | 86 | 1019.0 |
| 20260902024503 | 63 | 181 | 0.0 | 2.0 | 0.00 | 0.02 | 0.02 | 86 | 1018.9 |
| 20260902023603 | 63 | 181 | 0.0 | 1.0 | 0.00 | 0.02 | 0.02 | 86 | 1019.0 |
| 20260902022703 | 63 | 181 | 0.0 | 1.0 | 0.00 | 0.02 | 0.02 | 86 | 1018.9 |
| 20260902022016 | 63 | 0 | 0.0 | 0.0 | 0.00 | 0.02 | 0.02 | 86 | 1018.8 |
| 20260902020903 | 63 | 181 | 0.0 | 1.0 | 0.00 | 0.02 | 0.02 | 85 | 1018.9 |
| 20260902020003 | 63 | 0 | 0.0 | 0.0 | 0.00 | 0.02 | 0.02 | 85 | 1018.9 |
| 20260902015403 | 63 | 0 | 0.0 | 0.0 | 0.00 | 0.02 | 0.02 | 85 | 1018.8 |
| 20260902014503 | 63 | 181 | 0.0 | 3.0 | 0.00 | 0.02 | 0.02 | 84 | 1018.6 |
| 20260902013603 | 63 | 181 | 0.0 | 1.0 | 0.00 | 0.02 | 0.02 | 84 | 1018.5 |
| 20260902012703 | 63 | 181 | 0.0 | 2.0 | 0.00 | 0.02 | 0.02 | 84 | 1018.5 |
| 20260902011803 | 63 | 181 | 0.0 | 2.0 | 0.00 | 0.02 | 0.02 | 83 | 1018.7 |
| 20260902010903 | 63 | 181 | 0.0 | 1.0 | 0.00 | 0.02 | 0.02 | 83 | 1019.0 |
| 20260902010216 | 63 | 181 | 0.0 | 1.0 | 0.00 | 0.02 | 0.02 | 83 | 1019.2 |
| 20260902005403 | 63 | 181 | 0.0 | 1.0 | 0.00 | 0.02 | 0.02 | 83 | 1019.2 |
| 20260902004503 | 63 | 181 | 0.0 | 2.0 | 0.00 | 0.02 | 0.02 | 82 | 1019.2 |
| 20260902003603 | 63 | 181 | 0.0 | 2.0 | 0.00 | 0.02 | 0.02 | 82 | 1018.9 |
| 20260902002703 | 63 | 181 | 0.0 | 2.0 | 0.00 | 0.02 | 0.02 | 82 | 1019.0 |
| 20260902001803 | 63 | 181 | 0.0 | 2.0 | 0.00 | 0.02 | 0.02 | 82 | 1018.9 |
| 20260902000903 | 64 | 181 | 0.0 | 3.0 | 0.00 | 0.02 | 0.02 | 82 | 1018.7 |
| 20260902000003 | 64 | 181 | 0.0 | 2.0 | 0.00 | 0.02 | 0.02 | 82 | 1018.6 |
| 20260901235403 | 64 | 181 | 0.0 | 2.0 | 0.00 | 0.02 | 0.02 | 81 | 1018.7 |
| 20260901234503 | 64 | 181 | 0.0 | 1.0 | 0.00 | 0.02 | 0.02 | 80 | 1018.6 |
| 20260901233603 | 64 | 181 | 0.0 | 2.0 | 0.00 | 0.02 | 0.02 | 79 | 1018.4 |
| 20260901232703 | 64 | 181 | 0.0 | 1.0 | 0.00 | 0.02 | 0.02 | 78 | 1018.4 |
| 20260901231803 | 64 | 0 | 0.0 | 0.0 | 0.00 | 0.02 | 0.02 | 76 | 1018.5 |
| 20260901230903 | 64 | 0 | 0.0 | 0.0 | 0.00 | 0.02 | 0.02 | 75 | 1018.6 |
| 20260901230218 | 64 | 0 | 0.0 | 0.0 | 0.00 | 0.02 | 0.02 | 72 | 1018.6 |
| 20260901225617 | 64 | 0 | 0.0 | 0.0 | 0.00 | 0.02 | 0.02 | 73 | 1018.7 |
| 20260901224717 | 64 | 0 | 0.0 | 0.0 | 0.00 | 0.02 | 0.02 | 73 | 1018.9 |
| 20260901223603 | 64 | 0 | 0.0 | 0.0 | 0.00 | 0.02 | 0.02 | 73 | 1018.8 |
| 20260901222918 | 64 | 0 | 0.0 | 0.0 | 0.00 | 0.02 | 0.02 | 75 | 1018.8 |
| 20260901221803 | 64 | 181 | 0.0 | 2.0 | 0.00 | 0.02 | 0.02 | 72 | 1018.8 |
| 20260901220903 | 65 | 0 | 0.0 | 0.0 | 0.00 | 0.02 | 0.02 | 72 | 1018.8 |
| 20260901220218 | 65 | 181 | 0.0 | 2.0 | 0.00 | 0.02 | 0.02 | 72 | 1018.9 |
| 20260901215403 | 65 | 181 | 0.0 | 1.0 | 0.00 | 0.02 | 0.02 | 76 | 1018.9 |
| 20260901214503 | 65 | 181 | 0.0 | 3.0 | 0.00 | 0.02 | 0.02 | 74 | 1018.8 |
| 20260901213603 | 65 | 181 | 1.0 | 4.0 | 0.00 | 0.02 | 0.02 | 71 | 1018.6 |
| 20260901212703 | 65 | 181 | 1.0 | 4.0 | 0.00 | 0.02 | 0.02 | 73 | 1018.4 |
| 20260901212017 | 65 | 181 | 1.0 | 6.0 | 0.00 | 0.02 | 0.02 | 72 | 1018.5 |
| 20260901210903 | 65 | 180 | 2.0 | 6.0 | 0.00 | 0.02 | 0.02 | 68 | 1018.3 |
| 20260901210003 | 65 | 179 | 2.0 | 6.0 | 0.00 | 0.02 | 0.02 | 65 | 1018.2 |
| 20260901205403 | 65 | 177 | 2.0 | 6.0 | 0.00 | 0.02 | 0.02 | 68 | 1018.2 |
| 20260901204503 | 65 | 176 | 2.0 | 5.0 | 0.00 | 0.02 | 0.02 | 67 | 1018.3 |
| 20260901203603 | 65 | 175 | 1.0 | 4.0 | 0.00 | 0.02 | 0.02 | 69 | 1018.3 |
| 20260901202917 | 65 | 175 | 1.0 | 6.0 | 0.00 | 0.02 | 0.02 | 71 | 1018.3 |
| 20260901202018 | 65 | 174 | 1.0 | 6.0 | 0.02 | 0.02 | 0.02 | 72 | 1018.3 |
| 20260901200903 | 65 | 174 | 0.0 | 3.0 | 0.02 | 0.02 | 0.02 | 70 | 1018.3 |
| 20260901200003 | 64 | 174 | 0.0 | 3.0 | 0.02 | 0.02 | 0.02 | 67 | 1018.2 |
| 20260901195403 | 64 | 174 | 0.0 | 3.0 | 0.02 | 0.02 | 0.02 | 69 | 1018.2 |
| 20260901194503 | 64 | 174 | 0.0 | 3.0 | 0.02 | 0.02 | 0.02 | 69 | 1018.2 |
| 20260901193603 | 64 | 174 | 0.0 | 3.0 | 0.02 | 0.02 | 0.02 | 71 | 1018.0 |
| 20260901192703 | 66 | 174 | 0.0 | 5.0 | 0.01 | 0.01 | 0.01 | 69 | 1017.9 |
| 20260901192018 | 67 | 174 | 1.0 | 5.0 | 0.00 | 0.00 | 0.00 | 74 | 1017.7 |
| 20260901190903 | 68 | 174 | 1.0 | 5.0 | 0.00 | 0.00 | 0.00 | 67 | 1018.1 |
| 20260901190003 | 68 | 173 | 2.0 | 11.0 | 0.00 | 0.00 | 0.00 | 71 | 1018.1 |
| 20260901185618 | 68 | 173 | 2.0 | 11.0 | 0.00 | 0.00 | 0.00 | 69 | 1018.0 |
| 20260901184503 | 68 | 173 | 1.0 | 6.0 | 0.00 | 0.00 | 0.00 | 67 | 1017.9 |
| 20260901183603 | 68 | 172 | 1.0 | 6.0 | 0.00 | 0.00 | 0.00 | 70 | 1018.0 |
| 20260901182703 | 69 | 171 | 1.0 | 5.0 | 0.00 | 0.00 | 0.00 | 74 | 1018.2 |
| 20260901181803 | 69 | 171 | 1.0 | 4.0 | 0.00 | 0.00 | 0.00 | 76 | 1018.1 |
| 20260901180903 | 69 | 171 | 0.0 | 4.0 | 0.00 | 0.00 | 0.00 | 76 | 1018.4 |
| 20260901180003 | 68 | 171 | 1.0 | 5.0 | 0.00 | 0.00 | 0.00 | 77 | 1018.4 |
| 20260901175403 | 68 | 171 | 1.0 | 5.0 | 0.00 | 0.00 | 0.00 | 76 | 1018.5 |
| 20260901174503 | 69 | 171 | 1.0 | 5.0 | 0.00 | 0.00 | 0.00 | 77 | 1018.3 |
| 20260901173603 | 69 | 174 | 1.0 | 9.0 | 0.00 | 0.00 | 0.00 | 78 | 1018.1 |
| 20260901172703 | 69 | 180 | 1.0 | 5.0 | 0.00 | 0.00 | 0.00 | 78 | 1018.1 |
| 20260901171803 | 69 | 180 | 0.0 | 5.0 | 0.00 | 0.00 | 0.00 | 78 | 1018.0 |
| 20260901170903 | 69 | 180 | 1.0 | 4.0 | 0.00 | 0.00 | 0.00 | 80 | 1018.2 |
| 20260901170003 | 69 | 180 | 1.0 | 5.0 | 0.00 | 0.00 | 0.00 | 81 | 1018.1 |
| 20260901165403 | 69 | 180 | 1.0 | 5.0 | 0.00 | 0.00 | 0.00 | 81 | 1018.2 |
| 20260901164503 | 69 | 180 | 1.0 | 6.0 | 0.00 | 0.00 | 0.00 | 83 | 1018.1 |
| 20260901163818 | 68 | 178 | 2.0 | 6.0 | 0.00 | 0.00 | 0.00 | 82 | 1018.0 |
| 20260901162703 | 69 | 178 | 1.0 | 4.0 | 0.00 | 0.00 | 0.00 | 83 | 1018.2 |
| 20260901161803 | 69 | 178 | 2.0 | 7.0 | 0.00 | 0.00 | 0.00 | 82 | 1018.0 |
| 20260901160903 | 70 | 177 | 2.0 | 7.0 | 0.00 | 0.00 | 0.00 | 80 | 1018.1 |
| 20260901160003 | 70 | 177 | 1.0 | 7.0 | 0.00 | 0.00 | 0.00 | 79 | 1018.1 |
| 20260901155617 | 70 | 175 | 2.0 | 7.0 | 0.00 | 0.00 | 0.00 | 79 | 1018.1 |
| 20260901154503 | 70 | 173 | 2.0 | 6.0 | 0.00 | 0.00 | 0.00 | 77 | 1018.2 |
| 20260901153603 | 70 | 172 | 1.0 | 7.0 | 0.00 | 0.00 | 0.00 | 77 | 1018.2 |
| 20260901152703 | 70 | 182 | 1.0 | 7.0 | 0.00 | 0.00 | 0.00 | 78 | 1018.3 |
| 20260901152018 | 70 | 214 | 1.0 | 7.0 | 0.00 | 0.00 | 0.00 | 77 | 1018.3 |
| 20260901150903 | 69 | 233 | 0.0 | 2.0 | 0.00 | 0.00 | 0.00 | 78 | 1018.5 |
| 20260901150003 | 68 | 233 | 0.0 | 2.0 | 0.00 | 0.00 | 0.00 | 79 | 1018.5 |
| 20260901145616 | 68 | 233 | 0.0 | 2.0 | 0.00 | 0.00 | 0.00 | 78 | 1018.5 |
| 20260901144718 | 68 | 233 | 0.0 | 1.0 | 0.00 | 0.00 | 0.00 | 79 | 1018.5 |
| 20260901143603 | 68 | 0 | 0.0 | 0.0 | 0.00 | 0.00 | 0.00 | 79 | 1018.4 |
| 20260901142703 | 68 | 233 | 0.0 | 1.0 | 0.00 | 0.00 | 0.00 | 79 | 1018.6 |
| 20260901141803 | 69 | 233 | 0.0 | 2.0 | 0.00 | 0.00 | 0.00 | 79 | 1018.6 |
| 20260901140903 | 69 | 233 | 0.0 | 1.0 | 0.00 | 0.00 | 0.00 | 81 | 1018.5 |
| 20260901140003 | 68 | 233 | 0.0 | 2.0 | 0.00 | 0.00 | 0.00 | 81 | 1018.5 |
| 20260901135403 | 68 | 233 | 0.0 | 2.0 | 0.00 | 0.00 | 0.00 | 81 | 1018.4 |
| 20260901134503 | 68 | 233 | 0.0 | 1.0 | 0.00 | 0.00 | 0.00 | 82 | 1018.3 |
| 20260901133603 | 68 | 232 | 0.0 | 1.0 | 0.00 | 0.00 | 0.00 | 81 | 1018.6 |
| 20260901132703 | 68 | 232 | 0.0 | 1.0 | 0.00 | 0.00 | 0.00 | 82 | 1018.6 |
| 20260901132017 | 68 | 232 | 0.0 | 2.0 | 0.00 | 0.00 | 0.00 | 83 | 1018.5 |
| 20260901130903 | 68 | 232 | 0.0 | 1.0 | 0.00 | 0.00 | 0.00 | 84 | 1018.7 |
| 20260901130003 | 68 | 232 | 0.0 | 1.0 | 0.00 | 0.00 | 0.00 | 84 | 1018.4 |
| 20260901125403 | 68 | 232 | 0.0 | 1.0 | 0.00 | 0.00 | 0.00 | 84 | 1018.4 |
| 20260901124503 | 68 | 232 | 0.0 | 2.0 | 0.00 | 0.00 | 0.00 | 84 | 1018.6 |
| 20260901123603 | 68 | 232 | 0.0 | 1.0 | 0.00 | 0.00 | 0.00 | 84 | 1018.6 |
| 20260901122918 | 68 | 232 | 0.0 | 3.0 | 0.00 | 0.00 | 0.00 | 84 | 1018.5 |
| 20260901121803 | 69 | 232 | 0.0 | 3.0 | 0.00 | 0.00 | 0.00 | 85 | 1018.5 |
| 20260901120903 | 69 | 232 | 0.0 | 4.0 | 0.00 | 0.00 | 0.00 | 85 | 1018.4 |
| 20260901120003 | 69 | 232 | 0.0 | 2.0 | 0.00 | 0.00 | 0.00 | 85 | 1018.3 |
| 20260901115617 | 69 | 232 | 0.0 | 2.0 | 0.00 | 0.00 | 0.00 | 85 | 1018.2 |
| 20260901114503 | 69 | 232 | 0.0 | 2.0 | 0.00 | 0.00 | 0.00 | 86 | 1018.0 |
| 20260901113603 | 68 | 232 | 0.0 | 2.0 | 0.00 | 0.00 | 0.00 | 85 | 1017.8 |
| 20260901112703 | 68 | 232 | 0.0 | 2.0 | 0.00 | 0.00 | 0.00 | 85 | 1017.9 |
| 20260901111803 | 68 | 232 | 0.0 | 1.0 | 0.00 | 0.00 | 0.00 | 85 | 1017.8 |
| 20260901110903 | 68 | 235 | 0.0 | 1.0 | 0.00 | 0.00 | 0.00 | 85 | 1017.8 |
| 20260901110003 | 68 | 236 | 0.0 | 3.0 | 0.00 | 0.00 | 0.00 | 85 | 1017.7 |
| 20260901105403 | 68 | 236 | 0.0 | 3.0 | 0.00 | 0.00 | 0.00 | 85 | 1017.7 |
| 20260901104503 | 68 | 236 | 0.0 | 2.0 | 0.00 | 0.00 | 0.00 | 85 | 1017.7 |
| 20260901103603 | 67 | 0 | 0.0 | 0.0 | 0.00 | 0.00 | 0.00 | 84 | 1017.6 |
| 20260901102703 | 67 | 0 | 0.0 | 0.0 | 0.00 | 0.00 | 0.00 | 84 | 1017.7 |
| 20260901101803 | 68 | 0 | 0.0 | 0.0 | 0.00 | 0.00 | 0.00 | 83 | 1017.6 |
| 20260901100903 | 68 | 0 | 0.0 | 0.0 | 0.00 | 0.00 | 0.00 | 83 | 1017.6 |
| 20260901100003 | 68 | 0 | 0.0 | 0.0 | 0.00 | 0.00 | 0.00 | 82 | 1017.4 |
| 20260901095403 | 68 | 0 | 0.0 | 0.0 | 0.00 | 0.00 | 0.00 | 82 | 1017.4 |
| 20260901094718 | 68 | 0 | 0.0 | 0.0 | 0.00 | 0.00 | 0.00 | 81 | 1017.5 |
| 20260901093817 | 68 | 0 | 0.0 | 0.0 | 0.00 | 0.00 | 0.00 | 80 | 1017.5 |
| 20260901092703 | 68 | 0 | 0.0 | 0.0 | 0.00 | 0.00 | 0.00 | 79 | 1017.4 |
| 20260901091803 | 68 | 0 | 0.0 | 0.0 | 0.00 | 0.00 | 0.00 | 80 | 1017.4 |
| 20260901090903 | 67 | 236 | 0.0 | 1.0 | 0.00 | 0.00 | 0.00 | 81 | 1017.6 |
| 20260901090003 | 66 | 0 | 0.0 | 0.0 | 0.00 | 0.00 | 0.00 | 80 | 1017.8 |
| 20260901085403 | 66 | 0 | 0.0 | 0.0 | 0.00 | 0.00 | 0.00 | 79 | 1017.9 |
| 20260901084503 | 67 | 236 | 0.0 | 2.0 | 0.00 | 0.00 | 0.00 | 77 | 1018.1 |
| 20260901083603 | 67 | 0 | 0.0 | 0.0 | 0.00 | 0.00 | 0.00 | 75 | 1018.0 |
| 20260901082703 | 68 | 236 | 0.0 | 1.0 | 0.00 | 0.00 | 0.00 | 72 | 1017.9 |
| 20260901081803 | 68 | 0 | 0.0 | 0.0 | 0.00 | 0.00 | 0.00 | 71 | 1017.8 |
| 20260901080903 | 68 | 236 | 0.0 | 2.0 | 0.00 | 0.00 | 0.00 | 71 | 1017.9 |
| 20260901080003 | 68 | 236 | 0.0 | 3.0 | 0.00 | 0.00 | 0.00 | 73 | 1018.1 |
| 20260901075618 | 68 | 234 | 0.0 | 4.0 | 0.00 | 0.00 | 0.00 | 72 | 1018.1 |
| 20260901074503 | 68 | 234 | 0.0 | 3.0 | 0.00 | 0.00 | 0.00 | 73 | 1018.1 |
| 20260901073603 | 69 | 233 | 0.0 | 2.0 | 0.00 | 0.00 | 0.00 | 75 | 1018.2 |
| 20260901072703 | 68 | 0 | 0.0 | 0.0 | 0.00 | 0.00 | 0.00 | 75 | 1018.0 |
| 20260901071803 | 68 | 231 | 0.0 | 3.0 | 0.00 | 0.00 | 0.00 | 76 | 1018.3 |
| 20260901070903 | 68 | 229 | 0.0 | 3.0 | 0.00 | 0.00 | 0.00 | 78 | 1018.5 |